Location: Argonnex
(45.9500°N, 6.1333°E)
Time: 11:51:29
(UTC+00:00)

Cosmos 2263 Rocket - Pass Details

Date: 28 January 2023
Orbit: 825 x 847 km, 71.0° (Epoch: 25 March)

Event Time Altitude Azimuth Distance (km) Brightness Sun altitude
Rises 17:07:48 0° 338° (NNW) 3,377 5.4 -6.2°
Reaches altitude 10° 17:10:24 10° 346° (NNW) 2,438 4.6 -6.6°
Maximum altitude 17:15:38 40° 55° (NE) 1,203 2.6 -7.4°
Drops below altitude 10° 17:20:50 10° 125° (SE) 2,422 4.2 -8.3°
Sets 17:23:24 0° 132° (SE) 3,352 5.0 -8.7°
